Location: Unspecified
(0.0000°N, 0.0000°E)
Time: 08:30:11
(UTC+01:00)

Iridium 47 - Visible Passes

Search period start: 25 November 2017 00:00
Search period end: 05 December 2017 00:00
Orbit: 776 x 779 km, 86.4° (Epoch: 24 November)

Date Brightness Start Highest point End Pass type
(mag) Time Alt. Az. Time Alt. Az. Time Alt. Az.
25 Nov 7.3 21:25:41 17° S 21:25:41 17° S 21:26:51 10° S visible
26 Nov 6.7 20:51:29 22° SSE 20:51:29 22° SSE 20:53:18 10° SSE visible
27 Nov 6.7 20:17:12 18° SE 20:17:12 18° SE 20:18:57 10° SE visible
27 Nov 7.8 21:57:36 14° WSW 21:57:36 14° WSW 21:58:43 10° SW visible
28 Nov 6.6 21:23:16 32° SW 21:23:16 32° SW 21:26:36 10° SSW visible
29 Nov 5.0 20:48:49 72° S 20:48:49 72° S 20:53:30 10° S visible
30 Nov 5.4 20:14:18 38° ENE 20:14:49 39° E 20:19:39 10° SSE visible
30 Nov 7.9 21:54:41 11° W 21:55:14 11° W 21:56:33 10° WSW visible
01 Dec 6.4 19:39:40 16° ENE 19:41:22 18° E 19:44:49 10° SE visible
01 Dec 7.0 21:20:03 21° WNW 21:21:46 25° W 21:26:01 10° SW visible
02 Dec 5.6 20:45:17 24° NNW 20:48:19 56° W 20:53:26 10° SSW visible
03 Dec 4.9 20:10:20 13° N 20:14:52 65° E 20:20:02 10° S visible
04 Dec 5.9 19:36:57 10° NNE 19:41:24 29° E 19:45:52 10° SSE visible
04 Dec 7.7 21:18:49 10° NW 21:21:50 16° W 21:24:51 10° SW visible
